Weather History for Gadsden, AL

Change the Weather History Date:

Monday, September 24, 2012

  Actual Average Record
Temperature  
Mean Temperature 58 °F -  
Max Temperature 75 °F 78 °F 98 °F (1931)
Min Temperature 42 °F 55 °F 41 °F (1949)
Degree Days  
Heating Degree Days 6    
Growing Degree Days 8 (Base 50)    
Moisture  
Dew Point 44 °F    
Average Humidity 64    
Maximum Humidity 88    
Minimum Humidity 33    
Precipitation  
Precipitation 0.00 in - - ()
Sea Level Pressure  
Sea Level Pressure 30.19 in    
Wind  
Wind Speed 2 mph (NE)    
Max Wind Speed 14 mph    
Max Gust Speed 18 mph    
Visibility 10 miles    
Events      
Averages and records for this station are not official NWS values.
T = Trace of Precipitation, MM = Missing Value Source: NWS Daily Summary

Daily Weather History Graph

Daily Weather History Graph

Search for Another Location

Airport:

Trip Planner

Search our weather history database for the weather conditions in past years. The results will help you decide how hot, cold, wet, or windy it might be!

Date:

Astronomy

Sep. 24, 2012 Rise Set
Actual Time 6:34 AM CDT 6:37 PM CDT
Civil Twilight 6:09 AM CDT 7:02 PM CDT
Nautical Twilight 5:40 AM CDT 7:31 PM CDT
Astronomical Twilight 5:10 AM CDT 8:00 PM CDT
Moon 3:11 PM CDT (9/24) 1:03 AM CDT (9/24)
Length of Visible Light 12h 53m
Length of Day
12h 03m
Waxing Gibbous, 71% of the Moon is Illuminated
Sep 24
Waxing Gibbous
Sep 29
Full
Oct 8
Last Quarter
Oct 15
New
Oct 21
First Quarter

Hourly Weather History & Observations

Time (CDT) Temp. Windchill Dew Point Humidity Pressure Visibility Wind Dir Wind Speed Gust Speed Precip Events Conditions
12:15 AM 48.2 °F - 42.8 °F 82% 30.21 in 10.0 mi Calm Calm - N/A   Clear
12:35 AM 48.2 °F - 42.8 °F 82% 30.21 in 10.0 mi NNW 4.6 mph - N/A   Clear
12:55 AM 48.2 °F - 42.8 °F 82% 30.21 in 10.0 mi Calm Calm - N/A   Clear
1:15 AM 48.2 °F - 41.0 °F 76% 30.21 in 10.0 mi Calm Calm - N/A   Clear
1:35 AM 46.4 °F - 41.0 °F 81% 30.21 in 10.0 mi Calm Calm - N/A   Clear
1:55 AM 46.4 °F 45.2 °F 41.0 °F 81% 30.21 in 10.0 mi West 3.5 mph - N/A   Clear
2:35 AM 46.4 °F - 41.0 °F 81% 30.21 in 10.0 mi Calm Calm - N/A   Clear
2:55 AM 44.6 °F - 41.0 °F 87% 30.21 in 10.0 mi Calm Calm - N/A   Clear
3:35 AM 44.6 °F - 41.0 °F 87% 30.21 in 10.0 mi Calm Calm - N/A   Clear
3:55 AM 44.6 °F - 39.2 °F 81% 30.21 in 10.0 mi Calm Calm - N/A   Clear
4:15 AM 46.4 °F - 41.0 °F 81% 30.21 in 10.0 mi Calm Calm - N/A   Clear
4:35 AM 44.6 °F 43.1 °F 41.0 °F 87% 30.21 in 10.0 mi NNW 3.5 mph - N/A   Clear
4:55 AM 44.6 °F 43.1 °F 39.2 °F 81% 30.21 in 10.0 mi North 3.5 mph - N/A   Clear
5:15 AM 44.6 °F - 39.2 °F 81% 30.21 in 10.0 mi Calm Calm - N/A   Clear
5:35 AM 44.6 °F - 39.2 °F 81% 30.22 in 10.0 mi Calm Calm - N/A   Clear
5:55 AM 44.6 °F - 39.2 °F 81% 30.22 in 10.0 mi Calm Calm - N/A   Clear
6:15 AM 44.6 °F - 39.2 °F 81% 30.23 in 10.0 mi Calm Calm - N/A   Clear
6:35 AM 44.6 °F - 39.2 °F 81% 30.23 in 10.0 mi Calm Calm - N/A   Clear
6:55 AM 42.8 °F - 39.2 °F 87% 30.24 in 10.0 mi Calm Calm - N/A   Clear
7:15 AM 44.6 °F - 41.0 °F 87% 30.24 in 10.0 mi Calm Calm - N/A   Clear
7:35 AM 48.2 °F - 42.8 °F 82% 30.24 in 10.0 mi North 4.6 mph - N/A   Clear
7:55 AM 50.0 °F - 42.8 °F 76% 30.24 in 10.0 mi North 4.6 mph - N/A   Clear
8:15 AM 51.8 °F - 42.8 °F 71% 30.25 in 10.0 mi North 6.9 mph - N/A   Clear
8:35 AM 53.6 °F - 44.6 °F 72% 30.25 in 10.0 mi North 4.6 mph - N/A   Clear
8:55 AM 55.4 °F - 42.8 °F 63% 30.26 in 10.0 mi NNE 6.9 mph - N/A   Clear
9:15 AM 57.2 °F - 44.6 °F 63% 30.25 in 10.0 mi NE 6.9 mph - N/A   Clear
9:35 AM 60.8 °F - 42.8 °F 52% 30.25 in 10.0 mi ENE 8.1 mph - N/A   Clear
9:55 AM 62.6 °F - 44.6 °F 52% 30.25 in 10.0 mi NE 11.5 mph - N/A   Clear
10:15 AM 64.4 °F - 41.0 °F 42% 30.25 in 10.0 mi East 13.8 mph 18.4 mph N/A   Clear
10:35 AM 64.4 °F - 42.8 °F 45% 30.24 in 10.0 mi ENE 12.7 mph 16.1 mph N/A   Clear
10:55 AM 66.2 °F - 41.0 °F 40% 30.24 in 10.0 mi ENE 9.2 mph - N/A   Clear
11:15 AM 66.2 °F - 42.8 °F 43% 30.23 in 10.0 mi ENE 6.9 mph - N/A   Clear
11:35 AM 68.0 °F - 39.2 °F 35% 30.23 in 10.0 mi East 9.2 mph - N/A   Clear
11:55 AM 69.8 °F - 39.2 °F 33% 30.22 in 10.0 mi East 8.1 mph - N/A   Clear
12:35 PM 71.6 °F - 42.8 °F 35% 30.21 in 10.0 mi North 5.8 mph - N/A   Clear
12:55 PM 71.6 °F - 42.8 °F 35% 30.21 in 10.0 mi NNE 3.5 mph - N/A   Clear
1:15 PM 71.6 °F - 42.8 °F 35% 30.20 in 10.0 mi East 4.6 mph - N/A   Clear
1:35 PM 73.4 °F - 42.8 °F 33% 30.19 in 10.0 mi Calm Calm - N/A   Clear
2:15 PM 73.4 °F - 42.8 °F 33% 30.17 in 10.0 mi Calm Calm - N/A   Clear
2:35 PM 73.4 °F - 42.8 °F 33% 30.17 in 10.0 mi SSW 4.6 mph - N/A   Clear
2:55 PM 73.4 °F - 44.6 °F 36% 30.16 in 10.0 mi Calm Calm - N/A   Clear
3:15 PM 73.4 °F - 42.8 °F 33% 30.15 in 10.0 mi Calm Calm - N/A   Clear
3:35 PM 75.2 °F - 44.6 °F 34% 30.14 in 10.0 mi Calm Calm - N/A   Clear
3:55 PM 75.2 °F - 44.6 °F 34% 30.15 in 10.0 mi NE 3.5 mph - N/A   Clear
4:15 PM 73.4 °F - 42.8 °F 33% 30.14 in 10.0 mi Calm Calm - N/A   Clear
4:35 PM 75.2 °F - 44.6 °F 34% 30.14 in 10.0 mi East 4.6 mph - N/A   Clear
4:55 PM 73.4 °F - 44.6 °F 36% 30.14 in 10.0 mi ESE 5.8 mph - N/A   Clear
5:15 PM 73.4 °F - 42.8 °F 33% 30.14 in 10.0 mi ESE 3.5 mph - N/A   Clear
5:35 PM 73.4 °F - 42.8 °F 33% 30.14 in 10.0 mi Calm Calm - N/A   Clear
5:55 PM 69.8 °F - 46.4 °F 43% 30.14 in 10.0 mi SSE 3.5 mph - N/A   Clear
6:15 PM 66.2 °F - 46.4 °F 49% 30.15 in 10.0 mi Calm Calm - N/A   Clear
6:35 PM 62.6 °F - 48.2 °F 59% 30.15 in 10.0 mi Calm Calm - N/A   Clear
6:55 PM 62.6 °F - 48.2 °F 59% 30.15 in 10.0 mi Calm Calm - N/A   Clear
7:15 PM 60.8 °F - 48.2 °F 63% 30.15 in 10.0 mi Calm Calm - N/A   Clear
7:35 PM 57.2 °F - 48.2 °F 72% 30.15 in 10.0 mi Calm Calm - N/A   Clear
7:55 PM 57.2 °F - 48.2 °F 72% 30.15 in 10.0 mi Calm Calm - N/A   Clear
8:15 PM 55.4 °F - 48.2 °F 77% 30.15 in 10.0 mi Calm Calm - N/A   Clear
8:35 PM 55.4 °F - 48.2 °F 77% 30.16 in 10.0 mi Calm Calm - N/A   Clear
8:55 PM 55.4 °F - 48.2 °F 77% 30.16 in 10.0 mi Calm Calm - N/A   Clear
9:15 PM 53.6 °F - 48.2 °F 82% 30.17 in 10.0 mi Calm Calm - N/A   Clear
9:35 PM 53.6 °F - 48.2 °F 82% 30.16 in 10.0 mi Calm Calm - N/A   Clear
9:55 PM 53.6 °F - 48.2 °F 82% 30.17 in 10.0 mi Calm Calm - N/A   Clear
10:15 PM 51.8 °F - 46.4 °F 82% 30.17 in 10.0 mi WSW 3.5 mph - N/A   Clear
10:35 PM 51.8 °F - 48.2 °F 88% 30.17 in 10.0 mi Calm Calm - N/A   Clear
10:55 PM 51.8 °F - 46.4 °F 82% 30.17 in 10.0 mi Calm Calm - N/A   Clear
11:15 PM 51.8 °F - 46.4 °F 82% 30.17 in 10.0 mi Calm Calm - N/A   Clear
11:35 PM 50.0 °F - 46.4 °F 87% 30.17 in 10.0 mi Calm Calm - N/A   Clear
11:55 PM 50.0 °F - 46.4 °F 87% 30.16 in 10.0 mi Calm Calm - N/A   Clear